Home > Weather > Ahaus > Past weeks

Flag for Germany Weather for the Past 2 Weeks in Ahaus, North Rhine-Westphalia, Germany

Now
41 °F

Quite cool.


Feels Like: 41 °F
Forecast: 42 / 57 °F
Wind: 2 mph from North

Location: Rheine-Bentlage

Current Time: Apr 30, 2016 at 7:42:11 AM

Latest Report: Apr 30, 2016 at 6:20 AM


Visibility: N/A

Pressure: 30.01 "Hg

Humidity: 93%

Dew Point: 39 °F

Location of AhausLocation

Historic Weather in Ahaus — Graph

°F

Ahaus Temperature Yesterday

Maximum temperature yesterday: 50 °F (at 10:20 AM)
Minimum temperature yesterday: 37 °F (at 12:20 AM)
Average temperature yesterday: 43 °F

High & Low Weather Summary for the Past Weeks

 TemperatureHumidityPressure
High59 °F (Apr 21, 3:20 PM)100% (Apr 15, 10:20 PM)30.48 "Hg (Apr 15, 10:20 PM)
Low32 °F (Apr 20, 6:20 AM)35% (Apr 28, 2:20 PM)29.39 "Hg (Apr 26, 8:20 AM)
Average44 °F75%29.91 "Hg
* Reported Apr 15 5:20 AM — Apr 30 5:20 AM, Ahaus, Weather by CustomWeather, © 2016

Note: Actual official high and low records may vary slightly from our data, if they occured in-between our weather recording intervals... More about our weather records

Advertising

Ahaus Weather History for the Previous 24 Hours

Scroll right to see more
 ConditionsComfort  
Time TempWeatherWind HumidityBarometerVisibility
5:20 AM
Sat, Apr 30
41 °FQuite cool.2 mph93%30.01 "HgN/A
4:20 AM43 °FQuite cool.5 mph87%30.01 "HgN/A
3:20 AM43 °FQuite cool.2 mph93%29.98 "HgN/A
2:20 AM43 °FQuite cool.3 mph93%29.98 "HgN/A
1:20 AM43 °FQuite cool.2 mph87%29.98 "HgN/A
12:20 AM45 °FQuite cool.5 mph87%29.98 "HgN/A
11:20 PM
Fri, Apr 29
45 °FQuite cool.7 mph87%29.98 "HgN/A
10:20 PM45 °FQuite cool.6 mph87%29.98 "HgN/A
9:20 PM43 °FQuite cool.6 mph87%29.98 "HgN/A
8:20 PM45 °FQuite cool.6 mph87%29.95 "HgN/A
7:20 PM45 °FQuite cool.6 mph87%29.95 "HgN/A
6:20 PM45 °FQuite cool.7 mph87%29.98 "HgN/A
5:20 PM45 °FQuite cool.7 mph87%29.95 "HgN/A
4:20 PM45 °FQuite cool.8 mph76%29.95 "HgN/A
3:20 PM45 °FQuite cool.9 mph87%29.95 "HgN/A
2:20 PM45 °FQuite cool.9 mph87%29.92 "HgN/A
1:20 PM46 °FCool.13 mph82%29.92 "HgN/A
12:20 PM48 °FCool.12 mph66%29.89 "HgN/A
11:20 AM48 °FCool.13 mph66%29.89 "HgN/A
10:20 AM50 °FBroken clouds.17 mph58%29.86 "HgN/A
9:20 AM46 °FBroken clouds.14 mph66%29.89 "HgN/A
8:20 AM45 °FBroken clouds.8 mph71%29.89 "HgN/A
7:20 AM41 °FBroken clouds.7 mph76%29.89 "HgN/A
Weather by CustomWeather, © 2016

See weather overviewHow to use our weather pages